Current Version              Previous Version:    01  02  03  04  05  06  07  08  09  10  11  12  13  14  15  16  17  18  19  20  21  22  23  24  25  26  27  28  29  30  
   31  32  33  34  35  36  37  38  39  40  41  42  43  44  45  46  47  48  49  50  51  52  53  54  55  56  57  58  59  60  

[Printable]
188
ASUS44 KFWD 021010
RWRTX
NORTH TEXAS HOURLY WEATHER ROUNDUP
NATIONAL WEATHER SERVICE FORT WORTH TX
500 AM CDT TUE SEP 02 2014

NOTE: "FAIR" INDICATES FEW OR NO CLOUDS BELOW 12,000 FEET WITH NO
SIGNIFICANT WEATHER AND/OR OBSTRUCTIONS TO VISIBILITY.

TXZ118-119-021100-
DALLAS/FORT WORTH METROPLEX

CITY           SKY/WX    TMP DP  RH WIND       PRES   REMARKS
DFW AIRPORT    CLEAR     81  70  69 S17G25    29.87S
DALLAS LOVE    CLEAR     81  70  69 S14       29.88S
FTW MEACHAM    CLEAR     82  69  64 S17       29.87R
DAL-EXECUTIVE  CLEAR     81  70  69 S6        29.89R
FTW-ALLIANCE   CLEAR     80  68  66 S12G20    29.86R
FTW-NAS-JRB    CLEAR     83  68  60 S17       29.91S
FTW-SPINKS     CLEAR     79  69  72 S12G17    29.90S
ARLINGTON      CLEAR     80  69  69 S10       29.88S
GRAND PRAIRIE  CLEAR     80  69  68 S10G17    29.89S
ADDISON        CLEAR     82  68  64 S12       29.90F
MESQUITE       CLEAR     78  72  80 S8        29.90R
LANCASTER      CLEAR     78  70  76 S7        29.91R
$$

TXZ091>094-102>105-117-120-121-131>134-021100-
NORTH CENTRAL TEXAS

CITY           SKY/WX    TMP DP  RH WIND       PRES   REMARKS
SHRMAN/DENISON CLEAR     79  70  73 S8        29.89R
GAINESVILLE    CLEAR     78  69  73 S5        29.90R
BOWIE          CLEAR     79  69  71 S7        29.87R
BRIDGEPORT     CLEAR     81  66  61 S13       29.88S
DECATUR        CLEAR     79  67  66 S14G20    29.87F
DENTON         CLEAR     81  68  64 S15       29.86S
MCKINNEY       CLEAR     80  71  74 S15       29.88S
GREENVILLE     CLEAR     77  72  83 S8        29.91S
ROCKWALL       CLEAR     78  73  83 S15       29.89S
TERRELL        CLEAR     79  75  87 S7        29.91R
WAXAHACHIE     CLEAR     77  69  74 S9        29.91F
CLEBURNE       CLEAR     79  73  83 S12       29.91S
GRANBURY       CLEAR     81  69  68 S13       29.89S
$$

TXZ083>090-098>101-113>116-127>130-139>142-154-155-021100-
WESTERN NORTH TEXAS

CITY           SKY/WX    TMP DP  RH WIND       PRES   REMARKS
WICHITA FALLS  CLEAR     82  69  64 S12       29.84R
WF-KICKAPOO    CLEAR     82  67  60 S9        29.86R
VERNON         CLEAR     81  64  55 S9        29.84R
ABILENE        CLEAR     80  67  64 S15       29.90S
ABILENE-DYESS  CLEAR     79  68  68 S15G23    29.89R
BRECKENRIDGE   CLEAR     82  67  62 S13G18    29.88S
GRAHAM         CLEAR     81  68  65 S8        29.86R
MINERAL WELLS  CLEAR     79  69  71 S13       29.87R
STEPHENVILLE   CLEAR     77  69  75 S9        29.93S
COMANCHE         N/A     77  68  73 S15       29.92R
BROWNWOOD      CLEAR     77  68  73 S6        29.92S
COLEMAN        CLEAR     77  67  71 S9        29.93S
BRADY          CLEAR     75  70  83 SE6       29.94S
$$

TXZ143>147-156>162-174-175-021100-
CENTRAL TEXAS

CITY           SKY/WX    TMP DP  RH WIND       PRES   REMARKS
WACO           PTCLDY    78  73  84 S15       29.91S
WACO-MCGREGOR  CLEAR     77  68  73 S15       29.92S
HILLSBORO      CLEAR     78  70  75 S13       29.91R
CORSICANA      PTCLDY    78  73  84 S9        29.92R
MEXIA          CLOUDY    77  75  92 S12       29.91F
HEARNE           N/A     76  74  94 SE3       29.93F
CAMERON        MOCLDY    77  74  92 S3        29.92F
TEMPLE         CLEAR     75  70  83 S10       29.91F
KILLEEN        PTCLDY    77  72  83 S12       29.92F
KILLEEN-SKYLRK CLEAR     77  68  73 S8        29.92S
FORT HOOD      CLEAR     79  73  82 SE7       29.92F
GATESVILLE     CLEAR     79  72  78 S5        29.93F
HAMILTON       CLEAR     77  69  77 S12G20    29.93S
LAMPASAS       PTCLDY    76  72  88 S7        29.93S
$$

TXZ095>097-106>112-122>126-135>138-148>153-164>167-021100-
EAST TEXAS

CITY           SKY/WX    TMP DP  RH WIND       PRES   REMARKS
PARIS          CLEAR     75  68  78 S6        29.93R
SULPHUR SPRNGS CLEAR     79  73  81 S8        29.93S
MOUNT PLEASANT PTCLDY    78  75  90 S8        29.93S
GILMER         PTCLDY    79  77  94 S8        29.95R
MINEOLA        CLEAR     79  75  89 S8        29.93R
TYLER          MOCLDY    79  73  83 S9        29.92F
LONGVIEW       PTCLDY    78  74  87 S12       29.92F
MARSHALL       MOCLDY    78  76  91 S7        29.96R
ATHENS         MOCLDY    75  73  94 S9        29.91S
PALESTINE      MOCLDY    76  75  96 SE6       29.95S
JACKSONVILLE   CLOUDY    77  76  94 S9        29.97S
HENDERSON      CLOUDY    77  75  95 S6        29.95S
NACOGDOCHES    CLOUDY    77  75  94 S6        29.96S
LUFKIN         MOCLDY    79  75  87 SE3       29.95S
$$

SUPPLEMENTAL OBSERVATIONS (CENTRAL)

CITY           SKY/WX    TMP DP  RH WIND       PRES   REMARKS
CADDO GRASSLND   N/A     79  72  78 S9          N/A
MCGREGOR         N/A     77  72  83 S13         N/A
$$

SUPPLEMENTAL OBSERVATIONS (WEST)

CITY           SKY/WX    TMP DP  RH WIND       PRES   REMARKS
MILLERS CREEK    N/A     81  63  54 S10         N/A
LBJ GRASSLAND    N/A     79  66  65 S10         N/A
GRANBURY         N/A     81  70  69 S13         N/A
HAMBY            N/A     79  66  65 S13         N/A
IVIE RESERVOIR   N/A     77  66  69 SE8         N/A
$$

SUPPLEMENTAL OBSERVATIONS (EAST)

CITY           SKY/WX    TMP DP  RH WIND       PRES   REMARKS
TEXARKANA        N/A     79  75  89 S3          N/A
LINDEN           N/A     79  75  89 SW2         N/A
LUFKIN           N/A     77  73  88 MISG        N/A
N SABINE NF      N/A     75  73  94 MISG        N/A
$$

SUPPLEMENTAL OBSERVATIONS ARE A COLLECTION OF AUTOMATED INSTRUMENTS
THAT ARE MAINTAINED BY A VARIETY OF FEDERAL AND STATE AGENCIES.
CERTAIN ELEMENTS...SUCH AS HUMIDITY VALUES AND SUSTAINED WIND
SPEEDS...MAY BE APPROXIMATED.